Tracking 23732 objects as of 28-Sep-2021
HD Live streaming from Space Station
objects crossing your sky now

DMSP 5D-2 F13 DEB

Track DMSP 5D-2 F13 DEB now!
10-day predictions


NORAD ID: 40400
Int'l Code: 1995-015M
Perigee: 685.9 km
Apogee: 906.9 km
Inclination: 98.6 °
Period: 100.6 minutes
Semi major axis: 7167 km
RCS: Unknown
Launch date: March 24, 1995
Source: United States (US)
Launch site: AIR FORCE WESTERN TEST RANGE (AFWTR)

Note: This is SATELLITE DEBRIS
aabbcc
Your satellite tracking list
Your tracking list is empty




NASA's NSSDC Master Catalog

Two Line Element Set (TLE):
1 40400U 95015M   21270.77981866  .00000496  00000-0  18157-3 0  9996
2 40400  98.6078 289.4403 0154181  90.7955 271.0897 14.30740081343803
Source of the keplerian elements: AFSPC